Time,TemperatureF,DewpointF,PressureIn,WindDirection,WindDirectionDegrees,WindSpeedMPH,WindSpeedGustMPH,Humidity,HourlyPrecipIn,Conditions,Clouds,dailyrainin,SoftwareType,DateUTC
2014-02-14 00:06:00,19.1,17.0,29.45,East,89,6.0,6.0,93,0.00,,,0.00,weatherlink.com 1.10,2014-02-14 05:06:00,
2014-02-14 00:21:00,19.2,18.0,29.44,ENE,71,4.0,5.0,93,0.00,,,0.00,weatherlink.com 1.10,2014-02-14 05:21:00,
2014-02-14 00:36:00,19.0,17.0,29.43,NW,307,1.0,4.0,92,0.00,,,0.00,weatherlink.com 1.10,2014-02-14 05:36:00,
2014-02-14 00:51:00,19.1,17.0,29.43,NW,305,5.0,7.0,93,0.00,,,0.00,weatherlink.com 1.10,2014-02-14 05:51:00,
2014-02-14 01:06:00,19.0,17.0,29.42,NW,316,5.0,9.0,93,0.00,,,0.00,weatherlink.com 1.10,2014-02-14 06:06:00,
2014-02-14 01:21:00,19.0,17.0,29.41,North,1,1.0,4.0,93,0.00,,,0.00,weatherlink.com 1.10,2014-02-14 06:21:00,
2014-02-14 01:37:00,18.8,17.0,29.41,WNW,297,4.0,4.0,92,0.00,,,0.00,weatherlink.com 1.10,2014-02-14 06:37:00,
2014-02-14 01:52:00,18.8,17.0,29.41,NW,319,3.0,5.0,93,0.00,,,0.00,weatherlink.com 1.10,2014-02-14 06:52:00,
2014-02-14 02:07:00,18.8,17.0,29.41,NNE,31,0.0,2.0,93,0.00,,,0.00,weatherlink.com 1.10,2014-02-14 07:07:00,
2014-02-14 02:22:00,18.9,17.0,29.41,NW,312,2.0,5.0,93,0.00,,,0.00,weatherlink.com 1.10,2014-02-14 07:22:00,
2014-02-14 02:37:00,18.8,17.0,29.41,West,278,6.0,8.0,93,0.00,,,0.00,weatherlink.com 1.10,2014-02-14 07:37:00,
2014-02-14 02:51:00,18.6,17.0,29.41,West,266,5.0,7.0,93,0.00,,,0.00,weatherlink.com 1.10,2014-02-14 07:51:00,
2014-02-14 03:07:00,18.6,17.0,29.40,West,273,4.0,6.0,93,0.00,,,0.00,weatherlink.com 1.10,2014-02-14 08:07:00,
2014-02-14 03:22:00,18.5,17.0,29.39,WNW,285,4.0,5.0,93,0.00,,,0.00,weatherlink.com 1.10,2014-02-14 08:22:00,
2014-02-14 03:37:00,18.5,17.0,29.40,WSW,255,3.0,4.0,93,0.00,,,0.00,weatherlink.com 1.10,2014-02-14 08:37:00,
2014-02-14 03:52:00,18.5,17.0,29.38,SW,221,0.0,1.0,93,0.00,,,0.00,weatherlink.com 1.10,2014-02-14 08:52:00,
2014-02-14 04:07:00,18.7,17.0,29.39,West,264,3.0,3.0,93,0.00,,,0.00,weatherlink.com 1.10,2014-02-14 09:07:00,
2014-02-14 04:22:00,18.6,17.0,29.38,WSW,240,0.0,5.0,93,0.00,,,0.00,weatherlink.com 1.10,2014-02-14 09:22:00,
2014-02-14 04:37:00,18.7,17.0,29.38,SSW,207,0.0,1.0,93,0.00,,,0.00,weatherlink.com 1.10,2014-02-14 09:37:00,
2014-02-14 04:52:00,18.7,17.0,29.39,SSE,150,0.0,2.0,93,0.00,,,0.00,weatherlink.com 1.10,2014-02-14 09:52:00,
2014-02-14 05:07:00,18.7,17.0,29.38,SSE,166,1.0,1.0,93,0.00,,,0.00,weatherlink.com 1.10,2014-02-14 10:07:00,
2014-02-14 05:22:00,18.7,17.0,29.38,SSE,167,0.0,1.0,93,0.00,,,0.00,weatherlink.com 1.10,2014-02-14 10:22:00,
2014-02-14 05:37:00,18.7,17.0,29.36,SSE,152,1.0,2.0,93,0.00,,,0.00,weatherlink.com 1.10,2014-02-14 10:37:00,
2014-02-14 05:52:00,18.5,17.0,29.36,SSE,167,0.0,2.0,92,0.00,,,0.00,weatherlink.com 1.10,2014-02-14 10:52:00,
2014-02-14 06:07:00,18.3,16.0,29.37,South,179,1.0,3.0,92,0.00,,,0.00,weatherlink.com 1.10,2014-02-14 11:07:00,
2014-02-14 06:22:00,18.4,17.0,29.37,SSE,155,2.0,4.0,93,0.00,,,0.00,weatherlink.com 1.10,2014-02-14 11:22:00,
2014-02-14 06:37:00,18.5,17.0,29.37,SW,224,5.0,5.0,93,0.00,,,0.00,weatherlink.com 1.10,2014-02-14 11:37:00,
2014-02-14 06:52:00,18.8,17.0,29.37,SW,221,4.0,7.0,93,0.00,,,0.00,weatherlink.com 1.10,2014-02-14 11:52:00,
2014-02-14 07:07:00,19.0,17.0,29.37,SW,233,6.0,6.0,93,0.00,,,0.00,weatherlink.com 1.10,2014-02-14 12:07:00,
2014-02-14 07:22:00,19.2,18.0,29.37,SW,231,6.0,6.0,93,0.00,,,0.00,weatherlink.com 1.10,2014-02-14 12:22:00,
2014-02-14 07:37:00,19.4,18.0,29.38,WSW,253,5.0,7.0,93,0.00,,,0.00,weatherlink.com 1.10,2014-02-14 12:37:00,
2014-02-14 07:52:00,19.8,18.0,29.38,WSW,240,4.0,5.0,93,0.00,,,0.00,weatherlink.com 1.10,2014-02-14 12:52:00,
2014-02-14 08:07:00,20.5,19.0,29.39,WSW,257,6.0,9.0,93,0.00,,,0.00,weatherlink.com 1.10,2014-02-14 13:07:00,
2014-02-14 08:23:00,20.9,19.0,29.39,West,276,9.0,12.0,93,0.00,,,0.00,weatherlink.com 1.10,2014-02-14 13:23:00,
2014-02-14 08:38:00,21.0,19.0,29.39,West,266,6.0,10.0,93,0.00,,,0.00,weatherlink.com 1.10,2014-02-14 13:38:00,
2014-02-14 08:53:00,21.2,20.0,29.40,West,272,9.0,14.0,93,0.00,,,0.00,weatherlink.com 1.10,2014-02-14 13:53:00,
2014-02-14 09:08:00,21.3,20.0,29.40,West,278,7.0,12.0,93,0.00,,,0.00,weatherlink.com 1.10,2014-02-14 14:08:00,
2014-02-14 09:23:00,21.3,20.0,29.40,West,277,6.0,11.0,93,0.00,,,0.00,weatherlink.com 1.10,2014-02-14 14:23:00,
2014-02-14 09:38:00,21.2,19.0,29.41,West,273,9.0,14.0,90,0.00,,,0.00,weatherlink.com 1.10,2014-02-14 14:38:00,
2014-02-14 09:53:00,22.1,18.0,29.41,WNW,297,10.0,16.0,84,0.00,,,0.00,weatherlink.com 1.10,2014-02-14 14:53:00,
2014-02-14 10:08:00,23.1,19.0,29.41,WNW,287,11.0,15.0,85,0.00,,,0.00,weatherlink.com 1.10,2014-02-14 15:08:00,
2014-02-14 10:23:00,23.2,20.0,29.42,West,276,6.0,18.0,86,0.00,,,0.00,weatherlink.com 1.10,2014-02-14 15:23:00,
2014-02-14 10:38:00,23.2,20.0,29.42,WNW,295,12.0,23.0,87,0.00,,,0.00,weatherlink.com 1.10,2014-02-14 15:38:00,
2014-02-14 10:53:00,23.2,20.0,29.43,West,270,15.0,17.0,88,0.00,,,0.00,weatherlink.com 1.10,2014-02-14 15:53:00,
2014-02-14 11:08:00,23.1,20.0,29.43,WSW,257,14.0,22.0,89,0.00,,,0.00,weatherlink.com 1.10,2014-02-14 16:08:00,
2014-02-14 11:23:00,23.2,21.0,29.43,WNW,293,12.0,23.0,90,0.00,,,0.00,weatherlink.com 1.10,2014-02-14 16:23:00,
2014-02-14 11:38:00,23.2,21.0,29.44,West,262,11.0,25.0,90,0.00,,,0.00,weatherlink.com 1.10,2014-02-14 16:38:00,
2014-02-14 11:53:00,22.7,21.0,29.45,WNW,285,11.0,25.0,91,0.00,,,0.00,weatherlink.com 1.10,2014-02-14 16:53:00,
2014-02-14 12:08:00,22.4,21.0,29.46,West,278,12.0,20.0,92,0.00,,,0.00,weatherlink.com 1.10,2014-02-14 17:08:00,
2014-02-14 12:23:00,22.2,20.0,29.46,West,271,11.0,19.0,92,0.00,,,0.00,weatherlink.com 1.10,2014-02-14 17:23:00,
2014-02-14 12:38:00,22.0,20.0,29.46,West,274,12.0,20.0,92,0.00,,,0.00,weatherlink.com 1.10,2014-02-14 17:38:00,
2014-02-14 12:53:00,21.9,20.0,29.47,West,281,22.0,26.0,93,0.00,,,0.00,weatherlink.com 1.10,2014-02-14 17:53:00,
2014-02-14 13:08:00,21.7,20.0,29.48,WSW,249,13.0,21.0,93,0.00,,,0.00,weatherlink.com 1.10,2014-02-14 18:08:00,
2014-02-14 13:23:00,22.0,20.0,29.48,WNW,302,18.0,25.0,92,0.00,,,0.00,weatherlink.com 1.10,2014-02-14 18:23:00,
2014-02-14 13:38:00,22.4,20.0,29.49,West,270,11.0,25.0,91,0.00,,,0.00,weatherlink.com 1.10,2014-02-14 18:38:00,
2014-02-14 13:53:00,22.6,20.0,29.49,WNW,285,13.0,31.0,91,0.00,,,0.00,weatherlink.com 1.10,2014-02-14 18:53:00,
2014-02-14 14:08:00,22.8,20.0,29.50,WNW,291,19.0,31.0,90,0.00,,,0.00,weatherlink.com 1.10,2014-02-14 19:08:00,
2014-02-14 14:23:00,22.5,20.0,29.51,WNW,295,14.0,31.0,90,0.00,,,0.00,weatherlink.com 1.10,2014-02-14 19:23:00,
2014-02-14 14:38:00,22.3,20.0,29.52,West,280,13.0,27.0,91,0.00,,,0.00,weatherlink.com 1.10,2014-02-14 19:38:00,
2014-02-14 14:53:00,22.4,20.0,29.52,West,276,10.0,25.0,91,0.00,,,0.00,weatherlink.com 1.10,2014-02-14 19:53:00,
2014-02-14 15:08:00,22.5,20.0,29.53,West,274,13.0,24.0,91,0.00,,,0.00,weatherlink.com 1.10,2014-02-14 20:08:00,
2014-02-14 15:24:00,22.3,20.0,29.53,West,271,23.0,27.0,91,0.00,,,0.00,weatherlink.com 1.10,2014-02-14 20:24:00,
2014-02-14 15:39:00,22.3,20.0,29.54,West,268,14.0,25.0,92,0.00,,,0.00,weatherlink.com 1.10,2014-02-14 20:39:00,
2014-02-14 15:54:00,22.5,21.0,29.55,WNW,302,13.0,24.0,93,0.00,,,0.00,weatherlink.com 1.10,2014-02-14 20:54:00,
2014-02-14 16:09:00,22.7,21.0,29.55,West,279,10.0,21.0,94,0.00,,,0.00,weatherlink.com 1.10,2014-02-14 21:09:00,
2014-02-14 16:24:00,22.9,22.0,29.54,WNW,284,7.0,25.0,94,0.00,,,0.00,weatherlink.com 1.10,2014-02-14 21:24:00,
2014-02-14 16:39:00,23.1,22.0,29.55,West,278,9.0,23.0,94,0.00,,,0.00,weatherlink.com 1.10,2014-02-14 21:39:00,
2014-02-14 16:54:00,23.1,22.0,29.56,West,266,12.0,22.0,94,0.00,,,0.00,weatherlink.com 1.10,2014-02-14 21:54:00,
2014-02-14 17:09:00,23.0,22.0,29.57,WNW,288,16.0,21.0,94,0.00,,,0.00,weatherlink.com 1.10,2014-02-14 22:09:00,
2014-02-14 17:24:00,22.8,21.0,29.58,West,276,18.0,27.0,94,0.00,,,0.00,weatherlink.com 1.10,2014-02-14 22:24:00,
2014-02-14 17:39:00,22.7,21.0,29.59,West,278,20.0,25.0,94,0.00,,,0.00,weatherlink.com 1.10,2014-02-14 22:39:00,
2014-02-14 17:54:00,22.6,21.0,29.60,WNW,287,14.0,23.0,94,0.00,,,0.00,weatherlink.com 1.10,2014-02-14 22:54:00,
2014-02-14 18:09:00,22.4,21.0,29.60,West,277,13.0,25.0,94,0.00,,,0.00,weatherlink.com 1.10,2014-02-14 23:09:00,
2014-02-14 18:24:00,22.3,21.0,29.61,WNW,298,10.0,21.0,94,0.00,,,0.00,weatherlink.com 1.10,2014-02-14 23:24:00,
2014-02-14 18:39:00,22.2,21.0,29.62,WNW,283,9.0,25.0,94,0.00,,,0.00,weatherlink.com 1.10,2014-02-14 23:39:00,
2014-02-14 18:54:00,22.1,21.0,29.62,WNW,297,11.0,24.0,94,0.00,,,0.00,weatherlink.com 1.10,2014-02-14 23:54:00,
2014-02-14 19:09:00,22.0,20.0,29.62,WNW,288,11.0,15.0,93,0.00,,,0.00,weatherlink.com 1.10,2014-02-15 00:09:00,
2014-02-14 19:24:00,21.9,20.0,29.62,West,263,8.0,19.0,93,0.00,,,0.00,weatherlink.com 1.10,2014-02-15 00:24:00,
2014-02-14 19:39:00,21.8,20.0,29.62,West,281,13.0,22.0,93,0.00,,,0.00,weatherlink.com 1.10,2014-02-15 00:39:00,
2014-02-14 19:54:00,21.7,20.0,29.63,West,269,8.0,14.0,93,0.00,,,0.00,weatherlink.com 1.10,2014-02-15 00:54:00,
2014-02-14 20:09:00,21.7,20.0,29.63,WNW,282,11.0,16.0,93,0.00,,,0.00,weatherlink.com 1.10,2014-02-15 01:09:00,
2014-02-14 20:24:00,21.6,20.0,29.62,WNW,287,9.0,19.0,92,0.00,,,0.00,weatherlink.com 1.10,2014-02-15 01:24:00,
2014-02-14 20:39:00,21.6,20.0,29.62,WNW,287,13.0,16.0,92,0.00,,,0.00,weatherlink.com 1.10,2014-02-15 01:39:00,
2014-02-14 20:54:00,21.5,19.0,29.63,West,262,10.0,14.0,91,0.00,,,0.00,weatherlink.com 1.10,2014-02-15 01:54:00,
2014-02-14 21:09:00,21.5,19.0,29.63,West,270,8.0,13.0,91,0.00,,,0.00,weatherlink.com 1.10,2014-02-15 02:09:00,
2014-02-14 21:24:00,21.5,19.0,29.64,West,274,10.0,14.0,91,0.00,,,0.00,weatherlink.com 1.10,2014-02-15 02:24:00,
2014-02-14 21:39:00,21.5,19.0,29.64,WSW,252,8.0,14.0,91,0.00,,,0.00,weatherlink.com 1.10,2014-02-15 02:39:00,
2014-02-14 21:54:00,21.5,19.0,29.64,West,266,8.0,13.0,91,0.00,,,0.00,weatherlink.com 1.10,2014-02-15 02:54:00,
2014-02-14 22:09:00,21.4,19.0,29.65,West,270,5.0,16.0,90,0.00,,,0.00,weatherlink.com 1.10,2014-02-15 03:09:00,
2014-02-14 22:24:00,21.3,19.0,29.65,West,267,8.0,13.0,90,0.00,,,0.00,weatherlink.com 1.10,2014-02-15 03:24:00,
2014-02-14 22:39:00,21.2,19.0,29.65,West,269,5.0,14.0,90,0.00,,,0.00,weatherlink.com 1.10,2014-02-15 03:39:00,
2014-02-14 22:54:00,21.2,19.0,29.65,WSW,257,3.0,11.0,89,0.00,,,0.00,weatherlink.com 1.10,2014-02-15 03:54:00,
2014-02-14 23:09:00,21.1,18.0,29.65,West,271,7.0,8.0,89,0.00,,,0.00,weatherlink.com 1.10,2014-02-15 04:09:00,
2014-02-14 23:24:00,21.1,18.0,29.65,West,266,3.0,7.0,89,0.00,,,0.00,weatherlink.com 1.10,2014-02-15 04:24:00,
2014-02-14 23:39:00,21.0,18.0,29.65,NW,307,4.0,6.0,89,0.00,,,0.00,weatherlink.com 1.10,2014-02-15 04:39:00,
2014-02-14 23:54:00,21.0,18.0,29.65,WNW,282,3.0,6.0,89,0.00,,,0.00,weatherlink.com 1.10,2014-02-15 04:54:00,